• In France
  • List of Countries
  • For 7 days
  • Water Temperature
  • Satellite Maps
  • Weather Map
  • Weather Widgets
  • user-avatar
    Login

    Hourly Weather Kabul

    Today, 18 November, Saturday

    Time Temperature Precipitation Wind Pressure Humidity
    00:00 +2°C° 0 mm 0 mps 607 mmHg 45%
    01:00 +3°C° 0 mm 1 mps 607 mmHg 46%
    02:00 +3°C° 0 mm 1 mps 607 mmHg 47%
    03:00 +2°C° 0 mm 1 mps 607 mmHg 48%
    04:00 +2°C° 0 mm 1 mps 607 mmHg 49%
    05:00 +2°C° 0 mm 1 mps 607 mmHg 50%
    06:00 +2°C° 0 mm 1 mps 607 mmHg 48%
    07:00 +3°C° 0 mm 1 mps 608 mmHg 46%
    08:00 +3°C° 0 mm 1 mps 608 mmHg 44%
    09:00 +5°C° 0 mm 1 mps 609 mmHg 40%
    10:00 +6°C° 0 mm 1 mps 609 mmHg 36%
    11:00 +8°C° 0 mm 1 mps 610 mmHg 31%
    12:00 +9°C° 0 mm 1 mps 610 mmHg 30%
    13:00 +9°C° 0 mm 1 mps 610 mmHg 28%
    14:00 +10°C° 0 mm 1 mps 610 mmHg 27%
    15:00 +9°C° 0 mm 1 mps 610 mmHg 28%
    16:00 +9°C° 0 mm 1 mps 610 mmHg 29%
    17:00 +8°C° 0 mm 1 mps 610 mmHg 29%
    18:00 +7°C° 0 mm 1 mps 610 mmHg 31%
    19:00 +6°C° 0 mm 1 mps 610 mmHg 33%
    20:00 +4°C° 0 mm 2 mps 610 mmHg 34%
    21:00 +4°C° 0 mm 2 mps 610 mmHg 34%
    22:00 +3°C° 0 mm 2 mps 610 mmHg 34%
    23:00 +3°C° 0 mm 2 mps 610 mmHg 34%

    Tomorrow, 19 November, Sunday

    Time Temperature Precipitation Wind Pressure Humidity
    00:00 +3°C° 0 mm 2 mps 610 mmHg 35%
    01:00 +2°C° 0 mm 2 mps 609 mmHg 35%
    02:00 +2°C° 0 mm 2 mps 609 mmHg 35%
    03:00 +2°C° 0 mm 2 mps 609 mmHg 36%
    04:00 +1°C° 0 mm 2 mps 609 mmHg 36%
    05:00 +1°C° 0 mm 2 mps 609 mmHg 36%
    06:00 +1°C° 0 mm 2 mps 609 mmHg 34%
    07:00 +2°C° 0 mm 2 mps 610 mmHg 33%
    08:00 +2°C° 0 mm 2 mps 610 mmHg 31%
    09:00 +4°C° 0 mm 2 mps 610 mmHg 28%
    10:00 +7°C° 0 mm 1 mps 611 mmHg 24%
    11:00 +9°C° 0 mm 1 mps 611 mmHg 20%
    12:00 +9°C° 0 mm 1 mps 611 mmHg 19%
    13:00 +10°C° 0 mm 1 mps 611 mmHg 18%
    14:00 +11°C° 0 mm 1 mps 611 mmHg 17%
    15:00 +10°C° 0 mm 1 mps 610 mmHg 18%
    16:00 +9°C° 0 mm 1 mps 610 mmHg 19%
    17:00 +8°C° 0 mm 1 mps 609 mmHg 20%
    18:00 +7°C° 0 mm 1 mps 609 mmHg 21%
    19:00 +6°C° 0 mm 1 mps 609 mmHg 22%
    20:00 +5°C° 0 mm 1 mps 609 mmHg 22%
    21:00 +5°C° 0 mm 1 mps 609 mmHg 22%
    22:00 +4°C° 0 mm 1 mps 609 mmHg 22%
    23:00 +4°C° 0 mm 1 mps 609 mmHg 21%

    Day after tomorrow, 20 November, Monday

    Time Temperature Precipitation Wind Pressure Humidity
    00:00 +3°C° 0 mm 1 mps 609 mmHg 21%
    01:00 +3°C° 0 mm 1 mps 608 mmHg 20%
    02:00 +3°C° 0 mm 1 mps 608 mmHg 20%
    03:00 +2°C° 0 mm 1 mps 608 mmHg 20%
    04:00 +2°C° 0 mm 1 mps 607 mmHg 20%
    05:00 +2°C° 0 mm 1 mps 607 mmHg 20%
    06:00 +2°C° 0 mm 1 mps 608 mmHg 19%
    07:00 +3°C° 0 mm 1 mps 608 mmHg 18%
    08:00 +3°C° 0 mm 1 mps 609 mmHg 17%
    09:00 +5°C° 0 mm 1 mps 609 mmHg 15%
    10:00 +8°C° 0 mm 1 mps 610 mmHg 13%
    11:00 +10°C° 0 mm 1 mps 611 mmHg 11%
    12:00 +10°C° 0 mm 1 mps 611 mmHg 10%
    13:00 +11°C° 0 mm 1 mps 610 mmHg 10%
    14:00 +11°C° 0 mm 1 mps 610 mmHg 9%
    15:00 +10°C° 0 mm 1 mps 610 mmHg 11%
    16:00 +9°C° 0 mm 1 mps 609 mmHg 12%
    17:00 +8°C° 0 mm 1 mps 609 mmHg 13%
    18:00 +7°C° 0 mm 1 mps 608 mmHg 14%
    19:00 +5°C° 0 mm 0 mps 608 mmHg 14%
    20:00 +4°C° 0 mm 0 mps 608 mmHg 15%
    21:00 +3°C° 0 mm 0 mps 608 mmHg 15%
    22:00 +3°C° 0 mm 0 mps 608 mmHg 15%
    23:00 +2°C° 0 mm 0 mps 607 mmHg 15%

    21 November, Tuesday

    Time Temperature Precipitation Wind Pressure Humidity
    00:00 +3°C° 0 mm 1 mps 607 mmHg 15%
    01:00 +2°C° 0 mm 1 mps 607 mmHg 15%
    02:00 +2°C° 0 mm 1 mps 606 mmHg 15%
    03:00 +2°C° 0 mm 1 mps 606 mmHg 17%
    04:00 +1°C° 0 mm 1 mps 606 mmHg 18%
    05:00 +1°C° 0 mm 1 mps 605 mmHg 20%
    06:00 +2°C° 0 mm 1 mps 606 mmHg 18%
    07:00 +2°C° 0 mm 1 mps 606 mmHg 16%
    08:00 +3°C° 0 mm 1 mps 607 mmHg 14%
    09:00 +5°C° 0 mm 1 mps 608 mmHg 12%
    10:00 +8°C° 0 mm 1 mps 609 mmHg 10%
    11:00 +10°C° 0 mm 1 mps 610 mmHg 9%
    12:00 +11°C° 0 mm 1 mps 609 mmHg 9%
    13:00 +11°C° 0 mm 1 mps 609 mmHg 9%
    14:00 +12°C° 0 mm 1 mps 609 mmHg 9%
    15:00 +10°C° 0 mm 1 mps 608 mmHg 10%
    16:00 +8°C° 0 mm 0 mps 608 mmHg 12%
    17:00 +7°C° 0 mm 0 mps 607 mmHg 13%
    18:00 +6°C° 0 mm 0 mps 607 mmHg 14%
    19:00 +5°C° 0 mm 0 mps 607 mmHg 14%
    20:00 +4°C° 0 mm 0 mps 606 mmHg 15%
    21:00 +3°C° 0 mm 0 mps 606 mmHg 15%
    22:00 +3°C° 0 mm 0 mps 606 mmHg 15%
    23:00 +3°C° 0 mm 1 mps 606 mmHg 16%

    22 November, Wednesday

    Time Temperature Precipitation Wind Pressure Humidity
    00:00 +3°C° 0 mm 1 mps 606 mmHg 17%
    01:00 +3°C° 0 mm 1 mps 606 mmHg 18%
    02:00 +2°C° 0 mm 1 mps 605 mmHg 19%
    03:00 +2°C° 0 mm 1 mps 605 mmHg 20%
    04:00 +2°C° 0 mm 1 mps 605 mmHg 21%
    05:00 +2°C° 0 mm 1 mps 604 mmHg 22%
    06:00 +2°C° 0 mm 1 mps 605 mmHg 20%
    07:00 +3°C° 0 mm 1 mps 605 mmHg 18%
    08:00 +3°C° 0 mm 1 mps 606 mmHg 16%
    09:00 +6°C° 0 mm 1 mps 607 mmHg 14%
    10:00 +8°C° 0 mm 1 mps 608 mmHg 12%
    11:00 +11°C° 0 mm 1 mps 609 mmHg 10%
    12:00 +11°C° 0 mm 1 mps 609 mmHg 10%
    13:00 +12°C° 0 mm 1 mps 609 mmHg 10%
    14:00 +13°C° 0 mm 1 mps 608 mmHg 10%
    15:00 +11°C° 0 mm 1 mps 608 mmHg 12%
    16:00 +10°C° 0 mm 1 mps 607 mmHg 13%
    17:00 +8°C° 0 mm 1 mps 607 mmHg 15%
    18:00 +6°C° 0 mm 0 mps 606 mmHg 15%
    19:00 +5°C° 0 mm 0 mps 606 mmHg 16%
    20:00 +4°C° 0 mm 0 mps 606 mmHg 16%
    21:00 +4°C° 0 mm 0 mps 606 mmHg 17%
    22:00 +4°C° 0 mm 0 mps 606 mmHg 17%
    23:00 +3°C° 0 mm 0 mps 606 mmHg 17%

    23 November, Thursday

    Time Temperature Precipitation Wind Pressure Humidity
    00:00 +3°C° 0 mm 0 mps 605 mmHg 17%
    01:00 +4°C° 0 mm 1 mps 605 mmHg 18%
    02:00 +4°C° 0 mm 1 mps 605 mmHg 18%
    03:00 +3°C° 0 mm 1 mps 604 mmHg 19%
    04:00 +3°C° 0 mm 1 mps 604 mmHg 21%
    05:00 +2°C° 0 mm 0 mps 604 mmHg 22%
    06:00 +3°C° 0 mm 0 mps 604 mmHg 21%
    07:00 +3°C° 0 mm 0 mps 605 mmHg 20%
    08:00 +4°C° 0 mm 1 mps 605 mmHg 19%
    09:00 +7°C° 0 mm 1 mps 606 mmHg 16%
    10:00 +9°C° 0 mm 1 mps 607 mmHg 14%
    11:00 +11°C° 0 mm 1 mps 608 mmHg 12%
    12:00 +12°C° 0 mm 1 mps 608 mmHg 12%
    13:00 +12°C° 0 mm 1 mps 608 mmHg 12%
    14:00 +12°C° 0 mm 1 mps 608 mmHg 12%
    15:00 +11°C° 0 mm 1 mps 607 mmHg 14%
    16:00 +10°C° 0 mm 1 mps 607 mmHg 16%
    17:00 +9°C° 0 mm 1 mps 606 mmHg 18%
    18:00 +9°C° 0 mm 1 mps 606 mmHg 19%
    19:00 +7°C° 0 mm 0 mps 606 mmHg 19%
    20:00 +6°C° 0 mm 0 mps 606 mmHg 20%
    21:00 +6°C° 0 mm 0 mps 606 mmHg 20%
    22:00 +5°C° 0 mm 0 mps 606 mmHg 21%
    23:00 +6°C° 0 mm 1 mps 606 mmHg 21%
    Show more